Regional Weather Roundup
Issued by NWS Kansas City/Pleasant Hill, MO

Home | Current Version | Previous Version | Graphics & Text | Print | Product List | Glossary Off
Versions: 1 2 3 4 5 6 7 8 9 10 11 12 13 14 15 16 17 18 19 20 21 22 23 24 25 26 27 28 29

000
ASUS43 KEAX 282310
RWREAX

WEATHER ROUNDUP FOR EASTERN KANSAS AND NORTHWEST MISSOURI
NATIONAL WEATHER SERVICE KANSAS CITY/PLEASANT HILL MO
600 PM CDT THU APR 28 2016

KSZ040-057-103>105-MOZ028-029-037-043-290000-
...KANSAS CITY METROPOLITAN AREA...

CITY           SKY/WX    TMP DP  RH WIND       PRES   REMARKS
K.C. INTL      CLOUDY    55  46  71 W6        30.01R
K.C. DOWNTOWN  MOSUNNY   58  46  64 NW8       29.99R
LEES SUMMIT    MOSUNNY   60  47  61 NW12      29.99R
OLATHE - IXD   MOSUNNY   61  47  59 NW7       29.99S
OLATHE - OJC   MOSUNNY   61  47  59 NW8       29.98S
LAWRENCE       MOSUNNY   59  46  62 N8        29.99S

$$

MOZ001>008-011>017-020>025-030>033-038>040-044>046-053-054-290000-
...NORTHERN AND CENTRAL MISSOURI...

CITY           SKY/WX    TMP DP  RH WIND       PRES   REMARKS
ST. JOSEPH     CLOUDY    55  46  71 N8        30.00R
MOSBY          CLOUDY    55  46  71 W5        30.01R
WARRENSBURG    MOSUNNY   63  50  63 NW10      29.98R
WHITEMAN AFB   PTSUNNY   62  52  68 N12       29.97R
CLINTON        SUNNY     66  50  55 W6        29.98R
SEDALIA        CLOUDY    65  52  62 N9        29.98R
WARSAW         NOT AVBL
CHILLICOTHE      N/A     57  46  66 W7        30.00R
KIRKSVILLE     CLOUDY    58  46  64 W10       29.96R

$$

MOZ041-047>049-056>058-063>065-088>090-097-290000-
...EASTERN AND SOUTHERN MISSOURI...

CITY           SKY/WX    TMP DP  RH WIND       PRES   REMARKS
ST. LOUIS INTL MOSUNNY   72  49  44 NW12      29.93R
SPIRIT OF STL  MOSUNNY   71  50  47 W9        29.92R
COLUMBIA       PTSUNNY   63  50  62 NW10      29.98R
JEFFERSON CITY SUNNY     66  50  56 NW9       29.96R
ROLLA          SUNNY     70  47  43 W8        29.94R
OSAGE BEACH    MOSUNNY   70  45  40 W7        29.97R
SPRINGFIELD    SUNNY     71  45  39 NW6       29.97R
BRANSON        MOSUNNY   75  41  29 NW6       29.98R
JOPLIN         SUNNY     70  46  42 N6        29.98R
WEST PLAINS    SUNNY     76  40  27 NW6       29.96S

$$

IAZ060-094-KSZ022-034>040-054-083-096-NEZ052-066-093-290000-
...KANSAS...SOUTHEAST NEBRASKA AND IOWA...

CITY           SKY/WX    TMP DP  RH WIND       PRES   REMARKS
TOPEKA         MOSUNNY   61  46  57 N7        29.99S
MANHATTAN      SUNNY     60  44  55 NE9       29.99S
EMPORIA        PTSUNNY   63  46  54 N8        29.97S
CHANUTE        SUNNY     68  48  48 N5        29.97R
WICHITA        PTSUNNY   68  47  46 NE10      29.93F
OMAHA          CLOUDY    49  42  77 N9        30.03R
LINCOLN        CLOUDY    52  41  66 NW10      30.03R
FALLS CITY     CLOUDY    53  44  71 N10       29.99R
LAMONI         CLOUDY    53  45  74 NW15      29.97R
DES MOINES     LGT RAIN  52  48  86 W14       29.96R FOG

$$





USA.gov is the U.S. government's official web portal to all federal, state and local government web resources and services.